Regional Weather Roundup
Issued by NWS

Home | Current Version | Previous Version | Graphics & Text | Print | Product List | Glossary Off
Versions: 1 2 3 4 5 6 7 8 9 10 11 12 13 14 15 16 17 18 19 20 21 22 23 24 25 26 27 28 29 30 31 32 33 34 35 36 37 38 39 40 41 42 43 44 45 46 47 48 49 50

000
ASUS43 KDMX 250606
RWRIA

WEATHER ROUNDUP FOR IOWA
NATIONAL WEATHER SERVICE DES MOINES IA
100 AM CDT FRI MAY 25 2018

NOTE: "FAIR" INDICATES FEW OR NO CLOUDS BELOW 12,000 FEET WITH NO
SIGNIFICANT WEATHER AND/OR OBSTRUCTIONS TO VISIBILITY.

* - THESE STATIONS ARE NOT NWS STATIONS...THUS NOT UNDER NWS
QUALITY CONTROL.  THEY ALSO DO NOT REPORT WEATHER SUCH
AS PRECIPITATION OR FOG.

IAZ001>003-012>014-020>022-031>034-043>046-250700-
   NORTHWEST IOWA

CITY           SKY/WX    TMP DP  RH WIND       PRES   REMARKS
CARROLL *      CLOUDY    73  64  73 S10       29.93F
CHEROKEE *     CLOUDY    73  65  77 S9        29.89F
DENISON *      MOCLDY    73  63  68 S10       29.93F
LE MARS *      CLEAR     75  64  69 S12       29.87S
ORANGE CITY *  CLEAR     73  63  68 S7        29.89S
SHELDON *      PTCLDY    70  64  83 S9        29.88S
SIOUX CITY     CLEAR     77  63  61 S16G25    29.87F
6HR MIN TEMP:  74; 6HR MAX TEMP:  88;

SPENCER        CLOUDY    74  65  73 S12       29.90S
6HR MIN TEMP:  72; 6HR MAX TEMP:  89;

STORM LAKE *   CLOUDY    72  64  78 S14       29.92S
$$

IAZ055>058-069>071-079>083-090>094-250700-
   SOUTHWEST IOWA

CITY           SKY/WX    TMP DP  RH WIND       PRES   REMARKS
ATLANTIC *     CLOUDY    70  64  83 S6        29.95S
AUDUBON *      CLOUDY    72  64  78 S6        29.95F
CLARINDA *     MOCLDY    70  63  78 S3        29.98S
COUNCIL BLFS * MOCLDY    70  70 100 S8        29.94S
CRESTON *      CLOUDY    68  64  88 S8        29.99S
HARLAN  *      MOCLDY    72  64  78 S10       29.96F
LAMONI         CLEAR     69  65  86 S6        29.98S
6HR MIN TEMP:  69; 6HR MAX TEMP:  82;

RED OAK *      CLOUDY    72  63  73 S6        29.95F
SHENANDOAH *   CLOUDY    70  63  78 SW3       29.95F
$$

IAZ047>049-059>061-072>074-084-250700-
   CENTRAL IOWA

CITY           SKY/WX    TMP DP  RH WIND       PRES   REMARKS
AMES           CLOUDY    70  64  81 SE5       29.95F
6HR MIN TEMP:  70; 6HR MAX TEMP:  84;

ANKENY *       PTCLDY    73  64  73 S5        29.97S
BOONE *        PTCLDY    75  64  69 S8        29.95S
CHARITON *     PTCLDY    70  66  88 S6        29.97S
DES MOINES     PTCLDY    72  65  78 S7        29.95F
6HR MIN TEMP:  72; 6HR MAX TEMP:  85;

GRINNELL*      CLEAR     72  64  78 S7        29.98F
KNOXVILLE *    CLOUDY    72  64  78 S5        29.96S
MARSHALLTOWN   CLOUDY    71  65  81 S7        29.95F
6HR MIN TEMP:  71; 6HR MAX TEMP:  85;

NEWTON *       CLEAR     70  64  83 S7        29.97S
PELLA *        CLOUDY    71  64  80 S3        29.98F
PERRY *        FAIR      72  62  71 S6        29.95F
$$

IAZ004>006-015-016-023>025-035-036-250700-
   NORTH CENTRAL IOWA

CITY           SKY/WX    TMP DP  RH WIND       PRES   REMARKS
ALGONA *       CLOUDY    72  64  78 S15       29.91F
CLARION *      CLOUDY    73  64  73 S13       29.94F
ESTHERVILLE    MOCLDY    71  64  78 S15       29.89F
6HR MIN TEMP:  68; 6HR MAX TEMP:  85;

FORT DODGE *   CLOUDY    76  64  66 S14       29.93F
MASON CITY     CLOUDY    67  62  84 SE6       29.95F
6HR MIN TEMP:  67; 6HR MAX TEMP:  84;

FOREST CITY *  FAIR      70  63  78 CALM      29.94F
WEBSTER CITY * CLOUDY    73  64  73 S9        29.92F
IOWA FALLS *   FAIR      73  64  75 S10       29.96F
$$

IAZ007>011-017>019-026>030-037>042-050>054-066-250700-
   NORTHEAST IOWA

CITY           SKY/WX    TMP DP  RH WIND       PRES   REMARKS
CEDAR RAPIDS   FAIR      70  60  70 S5        29.97F
6HR MIN TEMP:  70; 6HR MAX TEMP:  86;

CHARLES CITY * FAIR      72  63  73 S6        29.96F
CLINTON *      FAIR      71  61  70 S6        30.00F
DECORAH *      FAIR      73  64  73 S6G13     29.96F
DUBUQUE        FAIR      67  58  72 S6        30.00F
6HR MIN TEMP:  67; 6HR MAX TEMP:  82;

MONTICELLO *   FAIR      70  61  73 CALM      29.99S
OELWEIN *      FAIR      70  64  83 S8        29.98F
WATERLOO       FAIR      70  64  81 S5        29.95F
6HR MIN TEMP:  70; 6HR MAX TEMP:  85;

$$

IAZ064-065-067-068-078-250700-
   EAST CENTRAL IOWA

CITY           SKY/WX    TMP DP  RH WIND       PRES   REMARKS
DAVENPORT      FAIR      68  58  70 S5        30.01F
6HR MIN TEMP:  68; 6HR MAX TEMP:  86;

IOWA CITY      FAIR      71  61  70 CALM      29.99F
6HR MIN TEMP:  70; 6HR MAX TEMP:  86;

MT. PLEASANT * PTCLDY    70  57  64 S5        29.99F
MUSCATINE *    FAIR      68  61  77 CALM      29.99F
QUAD CITIES    FAIR      69  62  78 CALM      29.99S
6HR MIN TEMP:  68; 6HR MAX TEMP:  87;

$$

IAZ062-063-075>077-085>089-095>099-250700-
   SOUTHEAST IOWA

CITY           SKY/WX    TMP DP  RH WIND       PRES   REMARKS
BURLINGTON     CLOUDY    71  59  65 S5        29.99F
6HR MIN TEMP:  71; 6HR MAX TEMP:  86;

FAIRFIELD *    CLOUDY    72  61  68 S5        29.98F
FORT MADISON * PTCLDY    75  61  60 S8        30.00F
KEOKUK *       CLOUDY    73  61  64 S5        29.99S
OSKALOOSA *    FAIR      71  64  80 S5        29.98F
CENTERVILLE *  FAIR      72  68  88 CALM      30.00S
OTTUMWA        CLOUDY    73  64  73 S7        29.97F
6HR MIN TEMP:  73; 6HR MAX TEMP:  86;

WASHINGTON *   MOCLDY    72  63  73 S6        29.99F
$$

ABBREVIATIONS USED IN REMARKS
   TC - TEMPERATURES IN CELSIUS
  WCI - WIND CHILL INDEX
   HX - HEAT INDEX
  VSB - VISIBILITY
$$





USA.gov is the U.S. government's official web portal to all federal, state and local government web resources and services.